,,Stat1,,Stat2,,Stat3,,Stat4,,Wind1,,Wind1,
time,status,PR1M_SUM,status,RH1M_AVG,status,SR1M_AVG,status,TA1M_AVG,status,W1dAve1m,status,W1sAve1m,
1999-11-19, 00:01:00,VALID,0,VALID,100,VALID,0,VALID,18.5776,VALID,189,VALID,0.841452,
1999-11-19, 00:02:00,VALID,0,VALID,100,VALID,0.0169808,VALID,18.5908,VALID,202,VALID,0.598758,
1999-11-19, 00:03:00,VALID,0,VALID,100,VALID,0,VALID,18.6106,VALID,197,VALID,0.70633,
1999-11-19, 00:04:00,VALID,0,VALID,100,VALID,0.0169808,VALID,18.5868,VALID,197,VALID,0.199747,
1999-11-19, 00:05:00,VALID,0,VALID,100,VALID,0.0339617,VALID,18.5873,VALID,201,VALID,0,
1999-11-19, 00:06:00,VALID,0,VALID,100,VALID,0,VALID,18.5776,VALID,193,VALID,0,
1999-11-19, 00:07:00,VALID,0,VALID,100,VALID,0.0509425,VALID,18.5709,VALID,197,VALID,0.103566,
1999-11-19, 00:08:00,VALID,0,VALID,100,VALID,0,VALID,18.5873,VALID,201,VALID,0.704492,
1999-11-19, 00:09:00,VALID,0,VALID,100,VALID,-0.0509425,VALID,18.5786,VALID,189,VALID,0.797931,
1999-11-19, 00:10:00,VALID,0,VALID,100,VALID,-0.0509425,VALID,18.5855,VALID,185,VALID,0.825169,
1999-11-19, 00:11:00,VALID,0,VALID,100,VALID,-0.0339617,VALID,18.5788,VALID,190,VALID,0.949747,
1999-11-19, 00:12:00,VALID,0,VALID,100,VALID,0,VALID,18.5756,VALID,184,VALID,0.930357,
1999-11-19, 00:13:00,VALID,0,VALID,100,VALID,-0.0339617,VALID,18.5721,VALID,172,VALID,0.920873,
1999-11-19, 00:14:00,VALID,0,VALID,100,VALID,0,VALID,18.5723,VALID,174,VALID,0.804883,
1999-11-19, 00:15:00,VALID,0,VALID,100,VALID,0,VALID,18.5622,VALID,172,VALID,0.657689,
1999-11-19, 00:16:00,VALID,0,VALID,100,VALID,-0.0169808,VALID,18.5659,VALID,169,VALID,0.690755,
1999-11-19, 00:17:00,VALID,0,VALID,100,VALID,0,VALID,18.5527,VALID,159,VALID,0.616741,
1999-11-19, 00:18:00,VALID,0,VALID,100,VALID,0,VALID,18.5686,VALID,141,VALID,0.441306,
1999-11-19, 00:19:00,VALID,0,VALID,100,VALID,-0.0339617,VALID,18.5885,VALID,158,VALID,0.339453,
1999-11-19, 00:20:00,VALID,0,VALID,100,VALID,-0.0169808,VALID,18.5917,VALID,159,VALID,0.169202,
1999-11-19, 00:21:00,VALID,0,VALID,100,VALID,-0.0339617,VALID,18.5721,VALID,164,VALID,0.0985243,
1999-11-19, 00:22:00,VALID,0,VALID,100,VALID,-0.0339617,VALID,18.5721,VALID,177,VALID,0,
1999-11-19, 00:23:00,VALID,0,VALID,100,VALID,0,VALID,18.5786,VALID,216,VALID,0.000200321,
1999-11-19, 00:24:00,VALID,0,VALID,100,VALID,-0.0169808,VALID,18.5783,VALID,221,VALID,0.289258,
1999-11-19, 00:25:00,VALID,0,VALID,100,VALID,-0.0509425,VALID,18.6044,VALID,214,VALID,0,
1999-11-19, 00:26:00,VALID,0,VALID,100,VALID,-0.0339617,VALID,18.6106,VALID,171,VALID,0,
1999-11-19, 00:27:00,VALID,0,VALID,100,VALID,-0.0509425,VALID,18.6335,VALID,119,VALID,0,
1999-11-19, 00:28:00,VALID,0,VALID,100,VALID,0,VALID,18.6365,VALID,139,VALID,0,
1999-11-19, 00:29:01,VALID,0,VALID,100,VALID,-0.0849042,VALID,18.64,VALID,142,VALID,0,
1999-11-19, 00:30:00,VALID,0,VALID,100,VALID,-0.0169808,VALID,18.6238,VALID,142,VALID,0,
1999-11-19, 00:31:00,VALID,0,VALID,100,VALID,-0.0509425,VALID,18.5977,VALID,169,VALID,0,
1999-11-19, 00:32:00,VALID,0,VALID,100,VALID,0,VALID,18.5816,VALID,211,VALID,0,
1999-11-19, 00:33:00,VALID,0,VALID,100,VALID,-0.0339617,VALID,18.5686,VALID,216,VALID,0,
1999-11-19, 00:34:00,VALID,0,VALID,100,VALID,-0.0339617,VALID,18.5619,VALID,201,VALID,0,
1999-11-19, 00:35:00,VALID,0,VALID,100,VALID,-0.0339617,VALID,18.5693,VALID,191,VALID,0,
1999-11-19, 00:36:00,VALID,0,VALID,100,VALID,-0.0169808,VALID,18.5654,VALID,193,VALID,0,
1999-11-19, 00:37:00,VALID,0,VALID,100,VALID,-0.0169808,VALID,18.5723,VALID,195,VALID,0,
1999-11-19, 00:38:00,VALID,0,VALID,100,VALID,-0.0339617,VALID,18.5559,VALID,194,VALID,0,
1999-11-19, 00:39:01,VALID,0,VALID,100,VALID,-0.0169808,VALID,18.5495,VALID,189,VALID,0,
1999-11-19, 00:40:00,VALID,0,VALID,100,VALID,-0.0169808,VALID,18.4878,VALID,153,VALID,0,
1999-11-19, 00:41:00,VALID,0,VALID,100,VALID,-0.0339617,VALID,18.4493,VALID,134,VALID,0,
1999-11-19, 00:42:00,VALID,0,VALID,100,VALID,-0.0169808,VALID,18.4102,VALID,125,VALID,0,
1999-11-19, 00:43:00,VALID,0,VALID,100,VALID,-0.0169808,VALID,18.3749,VALID,116,VALID,0,
1999-11-19, 00:44:00,VALID,0,VALID,100,VALID,-0.0339617,VALID,18.3491,VALID,112,VALID,0,
1999-11-19, 00:45:00,VALID,0,VALID,100,VALID,0,VALID,18.3329,VALID,90,VALID,0,
1999-11-19, 00:46:00,VALID,0,VALID,100,VALID,-0.0169808,VALID,18.3398,VALID,69,VALID,0,
1999-11-19, 00:47:00,VALID,0,VALID,100,VALID,-0.0509425,VALID,18.3426,VALID,71,VALID,0,
1999-11-19, 00:48:00,VALID,0,VALID,100,VALID,-0.0509425,VALID,18.3562,VALID,75,VALID,0,
1999-11-19, 00:49:00,VALID,0,VALID,100,VALID,-0.0509425,VALID,18.3463,VALID,80,VALID,0,
1999-11-19, 00:50:00,VALID,0,VALID,100,VALID,-0.0339617,VALID,18.3525,VALID,68,VALID,0,
1999-11-19, 00:51:01,VALID,0,VALID,100,VALID,-0.0169808,VALID,18.3456,VALID,70,VALID,0,
1999-11-19, 00:52:00,VALID,0,VALID,100,VALID,-0.0169808,VALID,18.3588,VALID,56,VALID,0,
1999-11-19, 00:53:00,VALID,0,VALID,100,VALID,-0.0339617,VALID,18.3694,VALID,77,VALID,0,
1999-11-19, 00:54:00,VALID,0,VALID,100,VALID,-0.0509425,VALID,18.3721,VALID,94,VALID,0,
1999-11-19, 00:55:00,VALID,0,VALID,100,VALID,-0.0679233,VALID,18.3719,VALID,95,VALID,0,
1999-11-19, 00:56:00,VALID,0,VALID,100,VALID,-0.0849042,VALID,18.3883,VALID,99,VALID,0.646484,
1999-11-19, 00:57:00,VALID,0,VALID,100,VALID,-0.0169808,VALID,18.3848,VALID,106,VALID,0.904911,
1999-11-19, 00:58:00,VALID,0,VALID,100,VALID,-0.0509425,VALID,18.3945,VALID,96,VALID,0.949319,
1999-11-19, 00:59:00,VALID,0,VALID,100,VALID,-0.0169808,VALID,18.4015,VALID,88,VALID,1.06836,
1999-11-19, 01:00:00,VALID,0,VALID,100,VALID,-0.0339617,VALID,18.4015,VALID,81,VALID,0.998561,
1999-11-19, 01:01:00,VALID,0,VALID,100,VALID,-0.0339617,VALID,18.4239,VALID,72,VALID,0.888889,
1999-11-19, 01:02:01,VALID,0,VALID,100,VALID,-0.0339617,VALID,18.4433,VALID,70,VALID,0.855357,
1999-11-19, 01:03:00,VALID,0,VALID,100,VALID,-0.0679233,VALID,18.4495,VALID,59,VALID,0.840144,
1999-11-19, 01:04:00,VALID,0,VALID,100,VALID,-0.0679233,VALID,18.4758,VALID,70,VALID,0.743164,
1999-11-19, 01:05:00,VALID,0,VALID,100,VALID,-0.101885,VALID,18.4788,VALID,87,VALID,0.654194,
1999-11-19, 01:06:00,VALID,0,VALID,100,VALID,-0.0679233,VALID,18.5049,VALID,93,VALID,0.800347,
1999-11-19, 01:07:00,VALID,0,VALID,100,VALID,-0.101885,VALID,18.5014,VALID,93,VALID,0.80692,
1999-11-19, 01:08:00,VALID,0,VALID,100,VALID,-0.0849042,VALID,18.5144,VALID,95,VALID,0.797075,
1999-11-19, 01:09:00,VALID,0,VALID,100,VALID,0.0169808,VALID,18.5134,VALID,91,VALID,1.05117,
1999-11-19, 01:10:00,VALID,0,VALID,100,VALID,0.0509425,VALID,18.51,VALID,90,VALID,1.09313,
1999-11-19, 01:11:00,VALID,0,VALID,100,VALID,0,VALID,18.5137,VALID,84,VALID,1.23307,
1999-11-19, 01:12:00,VALID,0,VALID,100,VALID,0.0169808,VALID,18.5294,VALID,88,VALID,1.43214,
1999-11-19, 01:13:01,VALID,0,VALID,100,VALID,0.0169808,VALID,18.5619,VALID,76,VALID,1.26482,
1999-11-19, 01:14:00,VALID,0,VALID,100,VALID,0,VALID,18.5818,VALID,83,VALID,1.39473,
1999-11-19, 01:15:00,VALID,0,VALID,100,VALID,0.0339617,VALID,18.5972,VALID,85,VALID,1.478,
1999-11-19, 01:16:00,VALID,0,VALID,100,VALID,0.0509425,VALID,18.6067,VALID,76,VALID,1.16602,
1999-11-19, 01:17:00,VALID,0,VALID,100,VALID,0.0509425,VALID,18.6194,VALID,64,VALID,0.982589,
1999-11-19, 01:18:00,VALID,0,VALID,100,VALID,0.0339617,VALID,18.6231,VALID,12,VALID,0.757813,
1999-11-19, 01:19:00,VALID,0,VALID,100,VALID,0.0169808,VALID,18.6162,VALID,360,VALID,0.475391,
1999-11-19, 01:20:00,VALID,0,VALID,100,VALID,0.0509425,VALID,18.6166,VALID,341,VALID,0.282278,
1999-11-19, 01:21:00,VALID,0,VALID,100,VALID,0.0169808,VALID,18.6226,VALID,82,VALID,0.686198,
1999-11-19, 01:22:00,VALID,0,VALID,100,VALID,0.0339617,VALID,18.6654,VALID,97,VALID,0.598437,
1999-11-19, 01:23:00,VALID,0,VALID,100,VALID,0.0169808,VALID,18.6587,VALID,63,VALID,0.611579,
1999-11-19, 01:24:01,VALID,0,VALID,100,VALID,-0.0849042,VALID,18.6591,VALID,67,VALID,0.635156,
1999-11-19, 01:25:00,VALID,0,VALID,100,VALID,-0.0679233,VALID,18.6663,VALID,88,VALID,0.777344,
1999-11-19, 01:26:00,VALID,0,VALID,100,VALID,-0.101885,VALID,18.6792,VALID,86,VALID,0.630859,
1999-11-19, 01:27:00,VALID,0,VALID,100,VALID,-0.101885,VALID,18.6827,VALID,94,VALID,0.571429,
1999-11-19, 01:28:00,VALID,0,VALID,100,VALID,-0.0849042,VALID,18.6959,VALID,94,VALID,0.771434,
1999-11-19, 01:29:00,VALID,0,VALID,100,VALID,-0.0679233,VALID,18.6989,VALID,93,VALID,0.855469,
1999-11-19, 01:30:00,VALID,0,VALID,100,VALID,-0.0849042,VALID,18.7053,VALID,90,VALID,0.330798,
1999-11-19, 01:31:00,VALID,0,VALID,100,VALID,-0.0849042,VALID,18.7081,VALID,89,VALID,0,
1999-11-19, 01:32:00,VALID,0,VALID,100,VALID,-0.0849042,VALID,18.7146,VALID,83,VALID,0,
1999-11-19, 01:33:00,VALID,0,VALID,100,VALID,-0.0849042,VALID,18.7185,VALID,87,VALID,0,
1999-11-19, 01:34:01,VALID,0,VALID,100,VALID,-0.101885,VALID,18.7252,VALID,90,VALID,0.363086,
1999-11-19, 01:35:01,VALID,0,VALID,100,VALID,-0.0509425,VALID,18.731,VALID,85,VALID,1.53269,
1999-11-19, 01:36:00,VALID,0,VALID,100,VALID,-0.101885,VALID,18.7536,VALID,79,VALID,1.53841,
1999-11-19, 01:37:00,VALID,0,VALID,100,VALID,-0.0849042,VALID,18.776,VALID,85,VALID,1.33795,
1999-11-19, 01:38:00,VALID,0,VALID,100,VALID,-0.0509425,VALID,18.7695,VALID,79,VALID,1.83353,
1999-11-19, 01:39:00,VALID,0,VALID,100,VALID,0.0169808,VALID,18.7942,VALID,85,VALID,1.34551,
1999-11-19, 01:40:00,VALID,0,VALID,100,VALID,0.0509425,VALID,18.8004,VALID,92,VALID,1.16715,
1999-11-19, 01:41:00,VALID,0,VALID,99.9672,VALID,0.0169808,VALID,18.8004,VALID,88,VALID,1.24935,
1999-11-19, 01:42:00,VALID,0,VALID,99.9265,VALID,0.0339617,VALID,18.8037,VALID,88,VALID,2.07946,
1999-11-19, 01:43:00,VALID,0,VALID,99.9214,VALID,0,VALID,18.8007,VALID,90,VALID,1.32292,
1999-11-19, 01:44:00,VALID,0,VALID,99.896,VALID,0.0509425,VALID,18.7979,VALID,91,VALID,1.16035,
1999-11-19, 01:45:00,VALID,0,VALID,99.8731,VALID,0,VALID,18.7746,VALID,82,VALID,1.27076,
1999-11-19, 01:46:01,VALID,0,VALID,99.8502,VALID,0.0339617,VALID,18.7748,VALID,82,VALID,1.03689,
1999-11-19, 01:47:00,VALID,0,VALID,99.8159,VALID,0.0339617,VALID,18.7716,VALID,79,VALID,1.32433,
1999-11-19, 01:48:00,VALID,0,VALID,99.7904,VALID,0.0679233,VALID,18.7907,VALID,91,VALID,1.04026,
1999-11-19, 01:49:00,VALID,0,VALID,99.7396,VALID,0.0169808,VALID,18.7877,VALID,82,VALID,0.974609,
1999-11-19, 01:50:00,VALID,0,VALID,99.6633,VALID,0.0169808,VALID,18.7845,VALID,81,VALID,1.33738,
1999-11-19, 01:51:00,VALID,0,VALID,99.6073,VALID,0.0169808,VALID,18.7683,VALID,89,VALID,1.21398,
1999-11-19, 01:52:00,VALID,0,VALID,99.5704,VALID,0.0339617,VALID,18.7778,VALID,86,VALID,1.26786,
1999-11-19, 01:53:00,VALID,0,VALID,99.5628,VALID,0.0169808,VALID,18.8039,VALID,82,VALID,1.27264,
1999-11-19, 01:54:00,VALID,0,VALID,99.5209,VALID,-0.0849042,VALID,18.8115,VALID,86,VALID,1.26934,
1999-11-19, 01:55:00,VALID,0,VALID,99.4814,VALID,-0.0849042,VALID,18.815,VALID,80,VALID,0.991776,
1999-11-19, 01:56:00,VALID,0,VALID,99.4255,VALID,-0.0679233,VALID,18.8123,VALID,69,VALID,0.799045,
1999-11-19, 01:57:00,VALID,0,VALID,99.3823,VALID,-0.0509425,VALID,18.7986,VALID,83,VALID,0.783036,
1999-11-19, 01:58:00,VALID,0,VALID,99.3454,VALID,-0.0679233,VALID,18.8051,VALID,85,VALID,1.39603,
1999-11-19, 01:59:00,VALID,0,VALID,99.2729,VALID,-0.101885,VALID,18.8314,VALID,94,VALID,1.21035,
1999-11-19, 02:00:00,VALID,0,VALID,99.236,VALID,-0.101885,VALID,18.8476,VALID,70,VALID,0.73602,
1999-11-19, 02:01:00,VALID,0,VALID,99.2017,VALID,-0.0679233,VALID,18.8404,VALID,356,VALID,0.483941,
1999-11-19, 02:02:00,VALID,0,VALID,99.208,VALID,-0.0849042,VALID,18.8312,VALID,5,VALID,0.308705,
1999-11-19, 02:03:00,VALID,0,VALID,99.2284,VALID,-0.0849042,VALID,18.8349,VALID,312,VALID,0,
1999-11-19, 02:04:00,VALID,0,VALID,99.2818,VALID,-0.0849042,VALID,18.8443,VALID,333,VALID,0.195898,
1999-11-19, 02:05:00,VALID,0,VALID,99.3505,VALID,-0.101885,VALID,18.8568,VALID,43,VALID,0.263569,
1999-11-19, 02:06:00,VALID,0,VALID,99.3772,VALID,-0.0339617,VALID,18.8503,VALID,78,VALID,0.562066,
1999-11-19, 02:07:00,VALID,0,VALID,99.3556,VALID,-0.0509425,VALID,18.8538,VALID,69,VALID,0.808705,
1999-11-19, 02:08:00,VALID,0,VALID,99.3479,VALID,-0.0679233,VALID,18.8503,VALID,44,VALID,0.508013,
1999-11-19, 02:09:00,VALID,0,VALID,99.3225,VALID,-0.0509425,VALID,18.8503,VALID,31,VALID,0.440039,
1999-11-19, 02:10:00,VALID,0,VALID,99.3276,VALID,-0.0509425,VALID,18.8143,VALID,2,VALID,0.330387,
1999-11-19, 02:11:00,VALID,0,VALID,99.4013,VALID,-0.101885,VALID,18.8309,VALID,100,VALID,0.641059,
1999-11-19, 02:12:00,VALID,0,VALID,99.4268,VALID,-0.101885,VALID,18.8372,VALID,92,VALID,0.876786,
1999-11-19, 02:13:00,VALID,0,VALID,99.4242,VALID,-0.0679233,VALID,18.854,VALID,98,VALID,1.25441,
1999-11-19, 02:14:00,VALID,0,VALID,99.3734,VALID,-0.0849042,VALID,18.8533,VALID,97,VALID,1.47344,
1999-11-19, 02:15:00,VALID,0,VALID,99.3021,VALID,-0.0849042,VALID,18.873,VALID,91,VALID,1.62438,
1999-11-19, 02:16:00,VALID,0,VALID,99.1953,VALID,-0.118866,VALID,18.8854,VALID,97,VALID,1.65777,
1999-11-19, 02:17:00,VALID,0,VALID,99.1101,VALID,-0.101885,VALID,18.9083,VALID,102,VALID,1.7317,
1999-11-19, 02:18:00,VALID,0,VALID,98.9919,VALID,-0.0849042,VALID,18.9215,VALID,98,VALID,1.4988,
1999-11-19, 02:19:00,VALID,0,VALID,98.9118,VALID,-0.0849042,VALID,18.9247,VALID,92,VALID,1.35508,
1999-11-19, 02:20:00,VALID,0,VALID,98.8227,VALID,-0.0509425,VALID,18.9312,VALID,90,VALID,1.36513,
1999-11-19, 02:21:00,VALID,0,VALID,98.7668,VALID,-0.0509425,VALID,18.9212,VALID,91,VALID,1.18533,
1999-11-19, 02:22:00,VALID,0,VALID,98.6676,VALID,-0.0679233,VALID,18.9145,VALID,97,VALID,1.23332,
1999-11-19, 02:23:00,VALID,0,VALID,98.6371,VALID,-0.0339617,VALID,18.911,VALID,85,VALID,1.17308,
1999-11-19, 02:24:00,VALID,0,VALID,98.5837,VALID,-0.0509425,VALID,18.8949,VALID,84,VALID,1.17754,
1999-11-19, 02:25:00,VALID,0,VALID,98.5837,VALID,-0.0509425,VALID,18.8917,VALID,90,VALID,1.11493,
1999-11-19, 02:26:00,VALID,0,VALID,98.5989,VALID,-0.0509425,VALID,18.879,VALID,98,VALID,1.02062,
1999-11-19, 02:27:00,VALID,0,VALID,98.6384,VALID,-0.0849042,VALID,18.866,VALID,113,VALID,0.854241,
1999-11-19, 02:28:00,VALID,0,VALID,98.7007,VALID,-0.0509425,VALID,18.8531,VALID,116,VALID,0.794671,
1999-11-19, 02:29:01,VALID,0,VALID,98.7617,VALID,-0.0679233,VALID,18.8439,VALID,115,VALID,0.550977,
1999-11-19, 02:30:00,VALID,0,VALID,98.8355,VALID,-0.101885,VALID,18.8208,VALID,124,VALID,0.612253,
1999-11-19, 02:31:00,VALID,0,VALID,98.8787,VALID,-0.0679233,VALID,18.8173,VALID,119,VALID,0.523438,
1999-11-19, 02:32:00,VALID,0,VALID,98.9181,VALID,-0.0849042,VALID,18.8078,VALID,139,VALID,0.397991,
1999-11-19, 02:33:00,VALID,0,VALID,98.9156,VALID,-0.0679233,VALID,18.7852,VALID,177,VALID,0.608774,
1999-11-19, 02:34:00,VALID,0,VALID,98.9486,VALID,-0.0339617,VALID,18.7755,VALID,201,VALID,0.563672,
1999-11-19, 02:35:00,VALID,0,VALID,99.0148,VALID,-0.0679233,VALID,18.766,VALID,208,VALID,0.606086,
1999-11-19, 02:36:00,VALID,0,VALID,99.0491,VALID,-0.0509425,VALID,18.7526,VALID,223,VALID,0.663194,
1999-11-19, 02:37:00,VALID,0,VALID,99.0567,VALID,-0.0509425,VALID,18.7335,VALID,223,VALID,0.956473,
1999-11-19, 02:38:00,VALID,0,VALID,99.1063,VALID,-0.0509425,VALID,18.7176,VALID,228,VALID,0.759215,
1999-11-19, 02:39:01,VALID,0,VALID,99.1546,VALID,-0.0339617,VALID,18.6947,VALID,237,VALID,0.6375,
1999-11-19, 02:40:00,VALID,0,VALID,99.203,VALID,-0.0339617,VALID,18.6718,VALID,237,VALID,0.72903,
1999-11-19, 02:41:00,VALID,0,VALID,99.2615,VALID,-0.0169808,VALID,18.6522,VALID,247,VALID,0.887587,
1999-11-19, 02:42:00,VALID,0,VALID,99.3276,VALID,-0.0679233,VALID,18.643,VALID,250,VALID,0.782143,
1999-11-19, 02:43:00,VALID,0,VALID,99.4039,VALID,-0.0849042,VALID,18.6402,VALID,267,VALID,0.615785,
1999-11-19, 02:44:00,VALID,0,VALID,99.4687,VALID,-0.0849042,VALID,18.6469,VALID,290,VALID,0.810547,
1999-11-19, 02:45:00,VALID,0,VALID,99.5463,VALID,-0.0679233,VALID,18.6335,VALID,275,VALID,0.5956,
1999-11-19, 02:46:00,VALID,0,VALID,99.5755,VALID,-0.0849042,VALID,18.6335,VALID,278,VALID,0.848524,
1999-11-19, 02:47:00,VALID,0,VALID,99.6315,VALID,-0.101885,VALID,18.6402,VALID,272,VALID,0.630804,
1999-11-19, 02:48:00,VALID,0,VALID,99.7358,VALID,-0.0679233,VALID,18.6464,VALID,287,VALID,0.286859,
1999-11-19, 02:49:00,VALID,0,VALID,99.7637,VALID,-0.0849042,VALID,18.6594,VALID,297,VALID,0.186914,
1999-11-19, 02:50:00,VALID,0,VALID,99.8082,VALID,-0.101885,VALID,18.6755,VALID,296,VALID,0.0929276,
1999-11-19, 02:51:00,VALID,0,VALID,99.84,VALID,-0.0679233,VALID,18.685,VALID,342,VALID,0.143229,
1999-11-19, 02:52:00,VALID,0,VALID,99.8769,VALID,-0.0849042,VALID,18.7079,VALID,346,VALID,0,
1999-11-19, 02:53:00,VALID,0,VALID,99.9087,VALID,-0.0509425,VALID,18.7236,VALID,348,VALID,0,
1999-11-19, 02:54:00,VALID,0,VALID,99.9201,VALID,0,VALID,18.7489,VALID,348,VALID,0,
1999-11-19, 02:55:00,VALID,0,VALID,99.9278,VALID,0.0679233,VALID,18.7515,VALID,348,VALID,0,
1999-11-19, 02:56:00,VALID,0,VALID,99.943,VALID,0.0509425,VALID,18.7713,VALID,348,VALID,0,
1999-11-19, 02:57:00,VALID,0,VALID,99.9532,VALID,0,VALID,18.7739,VALID,348,VALID,0,
1999-11-19, 02:58:00,VALID,0,VALID,99.9621,VALID,0.0169808,VALID,18.8039,VALID,347,VALID,0,
1999-11-19, 02:59:00,VALID,0,VALID,99.9494,VALID,0.0339617,VALID,18.7935,VALID,324,VALID,0,
1999-11-19, 03:00:00,VALID,0,VALID,99.9265,VALID,0.0509425,VALID,18.7773,VALID,307,VALID,0,
1999-11-19, 03:01:00,VALID,0,VALID,99.9367,VALID,0.0339617,VALID,18.7776,VALID,307,VALID,0,
1999-11-19, 03:02:00,VALID,0,VALID,99.9647,VALID,0.0509425,VALID,18.8034,VALID,307,VALID,0,
1999-11-19, 03:03:00,VALID,0,VALID,99.9733,VALID,0.0509425,VALID,18.8064,VALID,308,VALID,0,
1999-11-19, 03:04:00,VALID,0,VALID,99.957,VALID,0.0169808,VALID,18.8002,VALID,338,VALID,0,
1999-11-19, 03:05:00,VALID,0,VALID,99.9507,VALID,0.0679233,VALID,18.7972,VALID,359,VALID,0,
1999-11-19, 03:06:00,VALID,0,VALID,99.9532,VALID,0.0339617,VALID,18.7905,VALID,93,VALID,0,
1999-11-19, 03:07:00,VALID,0,VALID,99.9634,VALID,0.0509425,VALID,18.7806,VALID,99,VALID,0,
1999-11-19, 03:08:00,VALID,0,VALID,99.986,VALID,0.0849042,VALID,18.79,VALID,99,VALID,0,
1999-11-19, 03:09:00,VALID,0,VALID,99.9967,VALID,0.0339617,VALID,18.8034,VALID,102,VALID,0,
1999-11-19, 03:10:00,VALID,0,VALID,99.9969,VALID,0,VALID,18.8263,VALID,103,VALID,0,
1999-11-19, 03:11:00,VALID,0,VALID,99.9959,VALID,0,VALID,18.8298,VALID,109,VALID,0,
1999-11-19, 03:12:00,VALID,0,VALID,99.9898,VALID,0,VALID,18.8168,VALID,114,VALID,0,
1999-11-19, 03:13:00,VALID,0,VALID,99.9799,VALID,0.0169808,VALID,18.8198,VALID,107,VALID,0,
1999-11-19, 03:14:00,VALID,0,VALID,99.9911,VALID,0,VALID,18.8397,VALID,104,VALID,0.0587891,
1999-11-19, 03:15:00,VALID,0,VALID,99.9748,VALID,0.0169808,VALID,18.8238,VALID,103,VALID,0.893914,
1999-11-19, 03:16:00,VALID,0,VALID,99.9468,VALID,0.0169808,VALID,18.784,VALID,104,VALID,0.874566,
1999-11-19, 03:17:00,VALID,0,VALID,99.9418,VALID,0.0339617,VALID,18.794,VALID,95,VALID,1.00536,
1999-11-19, 03:18:00,VALID,0,VALID,99.9189,VALID,0.0509425,VALID,18.7716,VALID,81,VALID,1.11158,
1999-11-19, 03:19:00,VALID,0,VALID,99.9303,VALID,0,VALID,18.7718,VALID,83,VALID,1.0502,
1999-11-19, 03:20:00,VALID,0,VALID,99.9265,VALID,0,VALID,18.7554,VALID,76,VALID,1.01665,
1999-11-19, 03:21:00,VALID,0,VALID,99.9062,VALID,0.0169808,VALID,18.7455,VALID,73,VALID,1.08008,
1999-11-19, 03:22:00,VALID,0,VALID,99.9214,VALID,0,VALID,18.7291,VALID,75,VALID,0.995536,
1999-11-19, 03:23:00,VALID,0,VALID,99.9367,VALID,0.0169808,VALID,18.7166,VALID,87,VALID,1.3738,
1999-11-19, 03:24:01,VALID,0,VALID,99.9583,VALID,0,VALID,18.7198,VALID,87,VALID,0.949219,
1999-11-19, 03:25:00,VALID,0,VALID,99.9812,VALID,0,VALID,18.7228,VALID,79,VALID,1.01419,
1999-11-19, 03:26:00,VALID,0,VALID,99.9761,VALID,0,VALID,18.7169,VALID,80,VALID,0.894531,
1999-11-19, 03:27:00,VALID,0,VALID,99.998,VALID,-0.0169808,VALID,18.7261,VALID,77,VALID,0.983482,
1999-11-19, 03:28:00,VALID,0,VALID,100,VALID,0,VALID,18.736,VALID,86,VALID,0.884615,
1999-11-19, 03:29:00,VALID,0,VALID,100,VALID,0.0169808,VALID,18.739,VALID,99,VALID,0.760547,
1999-11-19, 03:30:00,VALID,0,VALID,100,VALID,0.0339617,VALID,18.7487,VALID,88,VALID,0.933594,
1999-11-19, 03:31:00,VALID,0,VALID,100,VALID,0.0169808,VALID,18.772,VALID,84,VALID,1.09028,
1999-11-19, 03:32:00,VALID,0,VALID,100,VALID,0,VALID,18.7651,VALID,78,VALID,0.94933,
1999-11-19, 03:33:00,VALID,0,VALID,100,VALID,0,VALID,18.7584,VALID,86,VALID,0.779647,
1999-11-19, 03:34:01,VALID,0,VALID,100,VALID,0.0169808,VALID,18.7586,VALID,83,VALID,0.533398,
1999-11-19, 03:35:00,VALID,0,VALID,100,VALID,0,VALID,18.7621,VALID,94,VALID,0.835526,
1999-11-19, 03:36:00,VALID,0,VALID,100,VALID,0,VALID,18.7584,VALID,97,VALID,0.745877,
1999-11-19, 03:37:00,VALID,0,VALID,100,VALID,0,VALID,18.775,VALID,82,VALID,0.78125,
1999-11-19, 03:38:00,VALID,0,VALID,100,VALID,0,VALID,18.7748,VALID,95,VALID,0.834135,
1999-11-19, 03:39:00,VALID,0,VALID,100,VALID,-0.0679233,VALID,18.772,VALID,84,VALID,1.00781,
1999-11-19, 03:40:00,VALID,0,VALID,100,VALID,-0.101885,VALID,18.7857,VALID,102,VALID,0.771382,
1999-11-19, 03:41:00,VALID,0,VALID,100,VALID,-0.0849042,VALID,18.779,VALID,81,VALID,0.655816,
1999-11-19, 03:42:00,VALID,0,VALID,100,VALID,-0.0679233,VALID,18.7725,VALID,83,VALID,1.12098,
1999-11-19, 03:43:00,VALID,0,VALID,100,VALID,-0.0679233,VALID,18.7785,VALID,88,VALID,1.13682,
1999-11-19, 03:44:00,VALID,0,VALID,100,VALID,-0.0849042,VALID,18.7951,VALID,94,VALID,0.663281,
1999-11-19, 03:45:00,VALID,0,VALID,100,VALID,-0.0849042,VALID,18.8118,VALID,84,VALID,0.402344,
1999-11-19, 03:46:01,VALID,0,VALID,100,VALID,-0.101885,VALID,18.8048,VALID,57,VALID,0.36697,
1999-11-19, 03:47:00,VALID,0,VALID,100,VALID,-0.0509425,VALID,18.8014,VALID,88,VALID,0.0933036,
1999-11-19, 03:48:00,VALID,0,VALID,100,VALID,-0.0679233,VALID,18.8143,VALID,96,VALID,0.499199,
1999-11-19, 03:49:00,VALID,0,VALID,100,VALID,-0.0849042,VALID,18.8113,VALID,95,VALID,0.534961,
1999-11-19, 03:50:00,VALID,0,VALID,100,VALID,-0.0849042,VALID,18.8143,VALID,90,VALID,0.523026,
1999-11-19, 03:51:00,VALID,0,VALID,100,VALID,-0.0509425,VALID,18.8143,VALID,94,VALID,0.244141,
1999-11-19, 03:52:00,VALID,0,VALID,100,VALID,-0.101885,VALID,18.8247,VALID,98,VALID,0.138616,
1999-11-19, 03:53:00,VALID,0,VALID,100,VALID,-0.101885,VALID,18.8277,VALID,125,VALID,0.0196314,
1999-11-19, 03:54:00,VALID,0,VALID,100,VALID,0,VALID,18.8298,VALID,131,VALID,0.295508,
1999-11-19, 03:55:00,VALID,0,VALID,100,VALID,0.0169808,VALID,18.8365,VALID,131,VALID,0,
1999-11-19, 03:56:00,VALID,0,VALID,100,VALID,0,VALID,18.8328,VALID,131,VALID,0,
1999-11-19, 03:57:01,VALID,0,VALID,100,VALID,0,VALID,18.8392,VALID,142,VALID,0.313616,
1999-11-19, 03:58:00,VALID,0,VALID,100,VALID,0.0339617,VALID,18.8392,VALID,164,VALID,0.482572,
1999-11-19, 03:59:00,VALID,0,VALID,100,VALID,0,VALID,18.83,VALID,177,VALID,0.144922,
1999-11-19, 04:00:00,VALID,0,VALID,100,VALID,0,VALID,18.8367,VALID,177,VALID,0,
1999-11-19, 04:01:00,VALID,0,VALID,100,VALID,0.0169808,VALID,18.8365,VALID,176,VALID,0,
1999-11-19, 04:02:00,VALID,0,VALID,100,VALID,0.0339617,VALID,18.8395,VALID,157,VALID,0,
1999-11-19, 04:03:00,VALID,0,VALID,100,VALID,0.0509425,VALID,18.8298,VALID,163,VALID,0,
1999-11-19, 04:04:00,VALID,0,VALID,100,VALID,0,VALID,18.8263,VALID,170,VALID,0,
1999-11-19, 04:05:00,VALID,0,VALID,100,VALID,0,VALID,18.8228,VALID,187,VALID,0,
1999-11-19, 04:06:00,VALID,0,VALID,100,VALID,0,VALID,18.8365,VALID,175,VALID,0,
1999-11-19, 04:07:00,VALID,0,VALID,100,VALID,0,VALID,18.8263,VALID,163,VALID,0,
1999-11-19, 04:08:01,VALID,0,VALID,100,VALID,0.0509425,VALID,18.8454,VALID,157,VALID,0,
1999-11-19, 04:09:00,VALID,0,VALID,100,VALID,0.0339617,VALID,18.842,VALID,130,VALID,0.413086,
1999-11-19, 04:10:00,VALID,0,VALID,99.9954,VALID,0.0849042,VALID,18.8581,VALID,115,VALID,0.585093,
1999-11-19, 04:11:00,VALID,0,VALID,99.9817,VALID,0.101885,VALID,18.884,VALID,104,VALID,0.554688,
1999-11-19, 04:12:00,VALID,0,VALID,99.9481,VALID,0.101885,VALID,18.8733,VALID,84,VALID,0.68817,
1999-11-19, 04:13:00,VALID,0,VALID,99.9456,VALID,0.101885,VALID,18.8803,VALID,89,VALID,0.603365,